EW6013 Weather Reports


Display with metric or nautical units.
time (UTC)temp
F
wind
direction
speed
MPH
gust
MPH
rain 1hr
in
rain 24hr
in
rain mn
in
humidity
%
barometer
mb
20260831131515 61 0.0 0.0 0.00 0.00 0.00 73 1018.1
20260831131015 61 0.0 0.0 0.00 0.00 0.00 62 1018.2
20260831130515 60 0.0 2.0 0.00 0.00 0.00 59 1018.2
20260831130015 60 313 0.0 2.0 0.00 0.00 0.00 48 1018.1
20260831125515 60 329 0.0 2.0 0.00 0.00 0.00 41 1018.1
20260831125035 60 343 0.0 1.0 0.00 0.00 0.00 33 1018.1
20260831124515 59 0.0 1.0 0.00 0.00 0.00 27 1018.1
20260831124015 59 343 0.0 1.0 0.00 0.00 0.00 18 1018.2
20260831123515 59 0.0 1.0 0.00 0.00 0.00 16 1018.2
20260831123015 59 343 0.0 1.0 0.00 0.00 0.00 15 1018.1
20260831122535 58 343 0.0 1.0 0.00 0.00 0.00 16 1018.1
20260831122015 58 0.0 0.0 0.00 0.00 0.00 16 1018.0
20260831121515 58 0.0 0.0 0.00 0.00 0.00 16 1018.0
20260831121015 57 0.0 1.0 0.00 0.00 0.00 17 1017.9
20260831120535 57 343 0.0 1.0 0.00 0.00 0.00 17 1017.9
20260831120015 57 0.0 0.0 0.00 0.00 0.00 17 1017.9
20260831115515 57 0.0 0.0 0.00 0.00 0.00 17 1017.9
20260831115015 57 0.0 0.0 0.00 0.00 0.00 18 1017.8
20260831114515 56 0.0 0.0 0.00 0.00 0.00 19 1017.8
20260831114015 56 0.0 0.0 0.00 0.00 0.00 20 1017.8
20260831113515 56 0.0 0.0 0.00 0.00 0.00 20 1017.8
20260831113035 56 0.0 0.0 0.00 0.00 0.00 20 1017.7
20260831112515 56 0.0 0.0 0.00 0.00 0.00 20 1017.7
20260831112015 56 0.0 0.0 0.00 0.00 0.00 21 1017.6
20260831111515 56 0.0 0.0 0.00 0.00 0.00 22 1017.5
20260831111015 56 0.0 0.0 0.00 0.00 0.00 23 1017.5
20260831110515 56 0.0 0.0 0.00 0.00 0.00 24 1017.4
20260831110015 56 0.0 0.0 0.00 0.00 0.00 25 1017.5
20260831105515 56 0.0 0.0 0.00 0.00 0.00 24 1017.5
20260831105015 56 0.0 0.0 0.00 0.00 0.00 24 1017.4
20260831104517 56 0.0 0.0 0.00 0.00 0.00 25 1017.4
20260831104017 56 0.0 0.0 0.00 0.00 0.00 26 1017.3
20260831103517 56 0.0 0.0 0.00 0.00 0.00 27 1017.2
20260831103016 56 0.0 0.0 0.00 0.00 0.00 28 1017.2
20260831102517 56 0.0 0.0 0.00 0.00 0.00 28 1017.1
20260831102016 56 0.0 0.0 0.00 0.00 0.00 28 1017.1
20260831101516 57 0.0 0.0 0.00 0.00 0.00 29 1017.1
20260831101016 57 0.0 0.0 0.00 0.00 0.00 29 1017.1
20260831100517 57 0.0 0.0 0.00 0.00 0.00 29 1017.1
20260831100036 57 0.0 0.0 0.00 0.00 0.00 29 1017.0
20260831095517 57 0.0 0.0 0.00 0.00 0.00 29 1017.0
20260831095016 57 0.0 0.0 0.00 0.00 0.00 29 1016.9
20260831094516 57 0.0 0.0 0.00 0.00 0.00 29 1016.8
20260831094037 58 0.0 0.0 0.00 0.00 0.00 28 1016.7
20260831093536 58 0.0 0.0 0.00 0.00 0.00 27 1016.7
20260831093016 58 0.0 0.0 0.00 0.00 0.00 27 1016.6
20260831092517 58 0.0 0.0 0.00 0.00 0.00 27 1016.6
20260831092017 58 0.0 0.0 0.00 0.00 0.00 27 1016.5
20260831091516 58 0.0 0.0 0.00 0.00 0.00 28 1016.4
20260831091017 58 0.0 0.0 0.00 0.00 0.00 29 1016.4
20260831090537 59 0.0 0.0 0.00 0.00 0.00 29 1016.3
20260831090016 59 0.0 0.0 0.00 0.00 0.00 28 1016.3
20260831085516 59 0.0 0.0 0.00 0.00 0.00 27 1016.3
20260831085036 59 0.0 0.0 0.00 0.00 0.00 27 1016.2
20260831084516 59 0.0 0.0 0.00 0.00 0.00 27 1016.2
20260831084017 59 0.0 0.0 0.00 0.00 0.00 26 1016.1
20260831083516 59 0.0 0.0 0.00 0.00 0.00 26 1016.0
20260831083016 59 0.0 0.0 0.00 0.00 0.00 28 1016.0
20260831082536 60 0.0 0.0 0.00 0.00 0.00 29 1015.9
20260831082016 60 0.0 0.0 0.00 0.00 0.00 30 1015.9
20260831081516 60 0.0 0.0 0.00 0.00 0.00 31 1015.8
20260831081016 60 0.0 0.0 0.00 0.00 0.00 31 1015.8
20260831080556 60 0.0 0.0 0.00 0.00 0.00 32 1015.8
20260831080016 60 0.0 0.0 0.00 0.00 0.00 32 1015.8
20260831075516 60 0.0 0.0 0.00 0.00 0.00 33 1015.8
20260831075036 60 0.0 0.0 0.00 0.00 0.00 33 1015.7
20260831074516 61 0.0 0.0 0.00 0.00 0.00 33 1015.8
20260831074016 61 0.0 0.0 0.00 0.00 0.00 33 1015.7
20260831073516 61 0.0 0.0 0.00 0.00 0.00 33 1015.7
20260831073016 61 0.0 0.0 0.00 0.00 0.00 32 1015.6
20260831072516 61 0.0 0.0 0.00 0.00 0.00 31 1015.6
20260831072016 61 0.0 0.0 0.00 0.00 0.00 33 1015.6
20260831071516 61 0.0 0.0 0.00 0.00 0.00 35 1015.7
20260831071016 61 0.0 0.0 0.00 0.00 0.00 36 1015.7
20260831070516 62 0.0 0.0 0.00 0.00 0.00 37 1015.7
20260831070016 62 0.0 0.0 0.00 0.00 0.00 38 1015.6
20260831065536 62 0.0 0.0 0.00 0.00 0.00 40 1015.5
20260831065016 62 0.0 0.0 0.00 0.00 0.00 40 1015.6
20260831064516 62 0.0 0.0 0.00 0.00 0.00 39 1015.6
20260831064016 62 0.0 0.0 0.00 0.00 0.00 40 1015.6
20260831063516 62 0.0 0.0 0.00 0.00 0.00 42 1015.7
20260831063016 62 0.0 0.0 0.00 0.00 0.00 44 1015.7
20260831062516 63 0.0 0.0 0.00 0.00 0.00 46 1015.6
20260831062036 63 0.0 0.0 0.00 0.00 0.00 49 1015.6
20260831061516 63 0.0 0.0 0.00 0.00 0.00 49 1015.5
20260831061036 63 0.0 0.0 0.00 0.00 0.00 50 1015.5
20260831060516 63 0.0 0.0 0.00 0.00 0.00 51 1015.4
20260831060016 64 0.0 0.0 0.00 0.00 0.00 53 1015.4
20260831055516 64 0.0 0.0 0.00 0.00 0.00 55 1015.4
20260831055016 64 0.0 0.0 0.00 0.00 0.00 58 1015.3
20260831054536 64 0.0 0.0 0.00 0.00 0.00 58 1015.3
20260831054016 64 0.0 0.0 0.00 0.00 0.00 59 1015.3
20260831053516 65 0.0 0.0 0.00 0.00 0.00 61 1015.3
20260831053016 65 0.0 0.0 0.00 0.00 0.00 63 1015.2
20260831052536 65 0.0 0.0 0.00 0.00 0.00 65 1015.2
20260831052016 65 0.0 0.0 0.00 0.00 0.00 67 1015.3
20260831051516 65 0.0 0.0 0.00 0.00 0.00 67 1015.2
20260831051016 66 0.0 0.0 0.00 0.00 0.00 68 1015.2
20260831050536 66 0.0 0.0 0.00 0.00 0.00 68 1015.2
20260831050016 66 0.0 0.0 0.00 0.00 0.00 69 1015.1
20260831045536 66 0.0 0.0 0.00 0.00 0.00 69 1015.1
20260831045016 67 0.0 0.0 0.00 0.00 0.00 70 1015.0
20260831044516 67 0.0 0.0 0.00 0.00 0.00 71 1014.9
20260831044016 67 0.0 0.0 0.00 0.00 0.00 72 1014.8
20260831043516 67 0.0 0.0 0.00 0.00 0.00 73 1014.8
20260831043016 68 0.0 0.0 0.00 0.00 0.00 73 1014.7
20260831042516 68 0.0 0.0 0.00 0.00 0.00 74 1014.7
20260831042016 68 0.0 0.0 0.00 0.00 0.00 74 1014.7
20260831041516 68 0.0 0.0 0.00 0.00 0.00 74 1014.7
20260831041016 69 0.0 3.0 0.00 0.00 0.00 74 1014.7
20260831040515 69 275 0.0 3.0 0.00 0.00 0.00 74 1014.6
20260831040016 69 0.0 0.0 0.00 0.00 0.00 74 1014.7
20260831035515 69 0.0 0.0 0.00 0.00 0.00 74 1014.6
20260831035015 70 0.0 1.0 0.00 0.00 0.00 75 1014.6
20260831034515 70 54 0.0 1.0 0.00 0.00 0.00 75 1014.6
20260831034016 70 288 0.0 1.0 0.00 0.00 0.00 75 1014.6
20260831033516 70 0.0 1.0 0.00 0.00 0.00 75 1014.6
20260831033015 70 302 0.0 1.0 0.00 0.00 0.00 75 1014.6
20260831032515 70 0.0 1.0 0.00 0.00 0.00 75 1014.7
20260831032015 70 314 0.0 1.0 0.00 0.00 0.00 74 1014.7
20260831031515 70 0.0 0.0 0.00 0.00 0.00 74 1014.7
20260831031015 70 0.0 3.0 0.00 0.00 0.00 74 1014.7
20260831030515 70 58 0.0 3.0 0.00 0.00 0.00 72 1014.6
20260831030015 70 0.0 0.0 0.00 0.00 0.00 72 1014.6
20260831025535 70 0.0 0.0 0.00 0.00 0.00 72 1014.5
20260831025015 70 0.0 0.0 0.00 0.00 0.00 71 1014.3
20260831024515 70 0.0 0.0 0.00 0.00 0.00 71 1014.3
20260831024015 70 0.0 0.0 0.00 0.00 0.00 72 1014.4
20260831023515 70 0.0 0.0 0.00 0.00 0.00 73 1014.6
20260831023035 70 0.0 0.0 0.00 0.00 0.00 73 1014.6
20260831022515 70 0.0 0.0 0.00 0.00 0.00 73 1014.5
20260831022035 70 0.0 0.0 0.00 0.00 0.00 73 1014.5
20260831021515 70 0.0 3.0 0.00 0.00 0.00 71 1014.4
20260831021015 69 340 0.0 3.0 0.00 0.00 0.00 69 1014.5
20260831020515 69 0.0 0.0 0.00 0.00 0.00 65 1014.4
20260831020015 69 0.0 0.0 0.00 0.00 0.00 59 1014.4
20260831015515 69 0.0 0.0 0.00 0.00 0.00 53 1014.4
20260831015015 69 0.0 0.0 0.00 0.00 0.00 52 1014.2
20260831014535 69 0.0 0.0 0.00 0.00 0.00 52 1014.2
20260831014035 69 0.0 0.0 0.00 0.00 0.00 52 1014.1
20260831013515 69 0.0 0.0 0.00 0.00 0.00 55 1014.2
20260831013035 69 0.0 0.0 0.00 0.00 0.00 56 1014.2
20260831012515 69 0.0 0.0 0.00 0.00 0.00 57 1014.1
20260831012015 69 0.0 0.0 0.00 0.00 0.00 58 1014.0
20260831011515 69 0.0 0.0 0.00 0.00 0.00 59 1013.9
20260831011015 69 0.0 0.0 0.00 0.00 0.00 58 1013.8
20260831010515 69 0.0 0.0 0.00 0.00 0.00 57 1013.8
20260831010015 69 0.0 0.0 0.00 0.00 0.00 58 1013.8
20260831005515 69 0.0 0.0 0.00 0.00 0.00 58 1013.8
20260831005015 69 0.0 0.0 0.00 0.00 0.00 58 1013.7
20260831004515 69 0.0 0.0 0.00 0.00 0.00 58 1013.6
20260831004015 69 0.0 0.0 0.00 0.00 0.00 58 1013.6
20260831003515 70 0.0 0.0 0.00 0.00 0.00 59 1013.5
20260831003055 70 0.0 0.0 0.00 0.00 0.00 59 1013.5
20260831002535 70 0.0 0.0 0.00 0.00 0.00 59 1013.4
20260831002035 70 0.0 0.0 0.00 0.00 0.00 61 1013.3
20260831001515 70 0.0 0.0 0.00 0.00 0.00 61 1013.2
20260831001015 70 0.0 0.0 0.00 0.00 0.00 60 1013.2
20260831000535 70 0.0 0.0 0.00 0.00 0.00 61 1013.1
20260831000015 70 0.0 0.0 0.00 0.00 0.00 61 1013.1
20260830235515 70 0.0 0.0 0.00 0.00 0.00 62 1013.0
20260830235015 70 0.0 0.0 0.00 0.00 0.00 64 1013.0
20260830234535 70 0.0 0.0 0.00 0.00 0.00 65 1013.0
20260830234015 70 0.0 0.0 0.00 0.00 0.00 64 1012.9
20260830233515 71 0.0 0.0 0.00 0.00 0.00 64 1012.9
20260830233015 71 0.0 0.0 0.00 0.00 0.00 65 1012.9
20260830232515 71 0.0 0.0 0.00 0.00 0.00 67 1012.9
20260830232015 71 0.0 0.0 0.00 0.00 0.00 67 1013.0
20260830231535 71 0.0 0.0 0.00 0.00 0.00 67 1013.0
20260830231015 71 0.0 0.0 0.00 0.00 0.00 68 1013.1
20260830230515 72 0.0 0.0 0.00 0.00 0.00 69 1013.0
20260830230035 72 0.0 0.0 0.00 0.00 0.00 70 1013.0
20260830225515 72 0.0 0.0 0.00 0.00 0.00 71 1013.1
20260830225015 72 0.0 0.0 0.00 0.00 0.00 72 1013.1
20260830224515 72 0.0 0.0 0.00 0.00 0.00 71 1013.2
20260830224015 72 0.0 0.0 0.00 0.00 0.00 71 1013.3
20260830223515 72 0.0 0.0 0.00 0.00 0.00 73 1013.3
20260830223015 72 0.0 0.0 0.00 0.00 0.00 74 1013.3
20260830222535 73 0.0 0.0 0.00 0.00 0.00 73 1013.3
20260830222015 73 0.0 0.0 0.00 0.00 0.00 73 1013.3
20260830221515 73 0.0 0.0 0.00 0.00 0.00 72 1013.3
20260830221015 73 0.0 0.0 0.00 0.00 0.00 70 1013.4
20260830220517 73 0.0 0.0 0.00 0.00 0.00 69 1013.3
20260830220017 73 0.0 0.0 0.00 0.00 0.00 68 1013.4
20260830215537 73 0.0 0.0 0.00 0.00 0.00 68 1013.4
20260830215017 73 0.0 0.0 0.00 0.00 0.00 68 1013.4
20260830214517 73 0.0 0.0 0.00 0.00 0.00 67 1013.4
20260830214017 73 0.0 0.0 0.00 0.00 0.00 66 1013.4
20260830213517 73 0.0 0.0 0.00 0.00 0.00 67 1013.5
20260830213017 73 0.0 0.0 0.00 0.00 0.00 68 1013.5
20260830212517 73 0.0 0.0 0.00 0.00 0.00 69 1013.6
20260830212017 73 0.0 0.0 0.00 0.00 0.00 71 1013.6
20260830211516 73 0.0 0.0 0.00 0.00 0.00 73 1013.5
20260830211016 73 0.0 0.0 0.00 0.00 0.00 73 1013.5
20260830210516 74 0.0 0.0 0.00 0.00 0.00 73 1013.6
20260830210017 74 0.0 0.0 0.00 0.00 0.00 73 1013.7
20260830205516 74 0.0 0.0 0.00 0.00 0.00 73 1013.8
20260830205016 74 0.0 0.0 0.00 0.00 0.00 73 1013.7
20260830204516 74 0.0 0.0 0.00 0.00 0.00 73 1013.7
20260830204016 74 0.0 0.0 0.00 0.00 0.00 73 1013.7
20260830203516 74 0.0 0.0 0.00 0.00 0.00 73 1013.8
20260830203016 74 0.0 0.0 0.00 0.00 0.00 73 1013.8
20260830202516 74 0.0 0.0 0.00 0.00 0.00 74 1013.9
20260830202016 74 0.0 0.0 0.00 0.00 0.00 73 1013.9
20260830201516 74 0.0 0.0 0.00 0.00 0.00 73 1013.9
20260830201016 74 0.0 0.0 0.00 0.00 0.00 73 1014.0
20260830200516 74 0.0 0.0 0.00 0.00 0.00 73 1014.0
20260830200016 74 0.0 0.0 0.00 0.00 0.00 73 1013.9
20260830195516 74 0.0 0.0 0.00 0.00 0.00 74 1014.0
20260830195016 74 0.0 0.0 0.00 0.00 0.00 74 1014.0
20260830194517 74 0.0 0.0 0.00 0.00 0.00 73 1014.1
20260830194016 74 0.0 0.0 0.00 0.00 0.00 73 1014.2
20260830193516 74 0.0 0.0 0.00 0.00 0.00 74 1014.4
20260830193016 74 0.0 0.0 0.00 0.00 0.00 74 1014.4
20260830192516 74 0.0 0.0 0.00 0.00 0.00 73 1014.5
20260830192016 74 0.0 0.0 0.00 0.00 0.00 74 1014.5
20260830191516 74 0.0 1.0 0.00 0.00 0.00 73 1014.6
20260830191016 75 176 0.0 1.0 0.00 0.00 0.00 73 1014.6
20260830190516 75 0.0 0.0 0.00 0.00 0.00 73 1014.7
20260830190016 75 0.0 0.0 0.00 0.00 0.00 73 1014.8
20260830185516 76 0.0 0.0 0.00 0.00 0.00 73 1014.8
20260830185016 76 0.0 0.0 0.00 0.00 0.00 73 1014.8
20260830184516 77 0.0 0.0 0.00 0.00 0.00 73 1014.9
20260830184016 77 0.0 0.0 0.00 0.00 0.00 72 1014.9
20260830183556 77 0.0 0.0 0.00 0.00 0.00 72 1014.9
20260830183016 77 0.0 0.0 0.00 0.00 0.00 71 1014.9
20260830182516 77 0.0 0.0 0.00 0.00 0.00 71 1014.9
20260830182016 77 0.0 0.0 0.00 0.00 0.00 70 1014.9
20260830181516 77 0.0 0.0 0.00 0.00 0.00 71 1015.0
20260830181016 77 0.0 0.0 0.00 0.00 0.00 71 1015.0
20260830180516 77 0.0 0.0 0.00 0.00 0.00 72 1015.2
20260830180016 77 0.0 0.0 0.00 0.00 0.00 72 1015.3
20260830175516 77 0.0 0.0 0.00 0.00 0.00 72 1015.3
20260830175016 77 0.0 0.0 0.00 0.00 0.00 72 1015.4
20260830174516 77 0.0 0.0 0.00 0.00 0.00 72 1015.5
20260830174016 77 0.0 0.0 0.00 0.00 0.00 71 1015.5
20260830173536 76 0.0 0.0 0.00 0.00 0.00 69 1015.6
20260830173016 76 0.0 0.0 0.00 0.00 0.00 69 1015.7
20260830172516 76 0.0 0.0 0.00 0.00 0.00 68 1015.8
20260830172036 76 0.0 0.0 0.00 0.00 0.00 68 1015.9
20260830171517 76 0.0 0.0 0.00 0.00 0.00 67 1015.8
20260830171016 76 0.0 1.0 0.00 0.00 0.00 68 1015.8
20260830170516 76 211 0.0 3.0 0.00 0.00 0.00 69 1015.8
20260830170016 76 276 0.0 3.0 0.00 0.00 0.00 69 1015.8
20260830165516 76 0.0 0.0 0.00 0.00 0.00 69 1015.9
20260830165016 76 0.0 0.0 0.00 0.00 0.00 68 1015.9
20260830164516 76 0.0 6.0 0.00 0.00 0.00 67 1016.0
20260830164016 76 295 0.0 6.0 0.00 0.00 0.00 67 1016.2
20260830163516 76 251 0.0 1.0 0.00 0.00 0.00 66 1016.3
20260830163016 76 0.0 2.0 0.00 0.00 0.00 67 1016.3
20260830162516 76 346 0.0 2.0 0.00 0.00 0.00 68 1016.3
20260830162016 75 272 0.0 2.0 0.00 0.00 0.00 69 1016.3
20260830161536 75 227 0.0 9.0 0.00 0.00 0.00 68 1016.3
20260830161016 74 232 2.0 9.0 0.00 0.00 0.00 68 1016.4
20260830160516 74 253 1.0 4.0 0.00 0.00 0.00 69 1016.5
20260830160016 74 230 1.0 4.0 0.00 0.00 0.00 68 1016.6
20260830155516 74 294 0.0 4.0 0.00 0.00 0.00 68 1016.6
20260830155016 74 236 0.0 4.0 0.00 0.00 0.00 67 1016.6
20260830154516 74 245 1.0 5.0 0.00 0.00 0.00 66 1016.6
20260830154016 74 219 0.0 5.0 0.00 0.00 0.00 66 1016.5
20260830153516 74 199 0.0 4.0 0.00 0.00 0.00 66 1016.6
20260830153036 74 221 0.0 5.0 0.00 0.00 0.00 66 1016.7
20260830152516 74 249 1.0 5.0 0.00 0.00 0.00 65 1016.8
20260830152036 75 195 0.0 5.0 0.00 0.00 0.00 64 1016.8
20260830151556 75 237 1.0 7.0 0.00 0.00 0.00 62 1016.8
20260830151036 75 232 1.0 11.0 0.00 0.00 0.00 63 1016.9
20260830150516 75 264 2.0 11.0 0.00 0.00 0.00 63 1017.0
20260830150016 76 262 1.0 4.0 0.00 0.00 0.00 64 1017.0
20260830145516 76 245 1.0 10.0 0.00 0.00 0.00 63 1016.9
20260830145016 76 280 1.0 10.0 0.00 0.00 0.00 61 1016.9
20260830144516 76 200 1.0 9.0 0.00 0.00 0.00 63 1016.7
20260830144016 77 272 3.0 9.0 0.00 0.00 0.00 61 1016.7
20260830143516 76 257 2.0 7.0 0.00 0.00 0.00 65 1016.6
20260830143016 76 212 1.0 4.0 0.00 0.00 0.00 64 1016.6
20260830142515 76 194 1.0 7.0 0.00 0.00 0.00 64 1016.7
20260830142016 75 188 1.0 7.0 0.00 0.00 0.00 65 1016.7
20260830141516 75 190 1.0 5.0 0.00 0.00 0.00 67 1016.7
20260830141036 74 207 2.0 5.0 0.00 0.00 0.00 70 1016.7
20260830140516 73 313 0.0 3.0 0.00 0.00 0.00 71 1016.8
20260830140016 73 102 0.0 3.0 0.00 0.00 0.00 71 1016.8
20260830135515 72 204 0.0 4.0 0.00 0.00 0.00 72 1017.0
20260830135016 71 207 1.0 4.0 0.00 0.00 0.00 73 1017.1
20260830134516 70 162 0.0 3.0 0.00 0.00 0.00 73 1017.1
20260830134035 70 0.0 2.0 0.00 0.00 0.00 74 1017.1
20260830133515 69 203 0.0 4.0 0.00 0.00 0.00 74 1017.1
20260830133015 68 179 0.0 4.0 0.00 0.00 0.00 73 1017.0
20260830132515 67 164 0.0 2.0 0.00 0.00 0.00 68 1017.0
20260830132035 66 53 0.0 2.0 0.00 0.00 0.00 64 1017.0